Powrót do katalogu

STARLINK-31237

AktywnyŁącznośćVLEO
NORAD 58855·PAYLOAD·🇺🇸 United States

Wystrzelony Jan 29, 2024 z Cape Canaveral Space Force Station

Loading…

Następne Przeloty (najbliższe 24 godziny)

TLE

ŚwieżeSource: CelesTrak SupGP

Epoka: Sep 15, 2026, 03:27 UTC

1 58855C 24019C   26258.14423611 -.00032491  00000+0 -11769-2 0  2586
2 58855  42.9988 258.7174 0001173 273.7541 327.2089 15.27591959    13

Śledź STARLINK-31237 w czasie rzeczywistym z AllMySat

Download on the App Store